This demonstration page uses our WeatherBlox Daily Observations layout. Learn more.

Left ArrowRight Arrow

44.8408, -93.29828

Hourly Observations for February 5, 2022

Temp ( °F °C ) Dew Point ( °F °C ) Humidity (%) Winds ( mph kmh ) Pressure ( in mb ) Visibility ( mi km ) Precip ( " mm )
12:53 am 00:53 Mostly Cloudy -3 -19.4 -11 -23.9 68 68 SW 6 9 30.49 1033 10 16 0.00 0.00
1:53 am 01:53 Cloudy -3 -19.4 -10 -23.3 71 71 S 5 7 30.44 1031 10 16 0.00 0.00
2:53 am 02:53 Cloudy -2 -18.9 -10 -23.3 68 68 SW 6 9 30.44 1031 10 16 0.00 0.00
3:53 am 03:53 Cloudy -1 -18.3 -8 -22.2 72 72 S 6 9 30.40 1030 10 16 0.00 0.00
4:53 am 04:53 Cloudy 0 -17.8 -8 -22.2 69 69 SE 8 13 30.38 1029 9 14 0.00 0.00
5:53 am 05:53 Cloudy 1 -17.2 -7 -21.7 68 68 SSE 10 17 30.34 1028 10 16 0.00 0.00
6:53 am 06:53 Cloudy 2 -16.7 -6 -21.1 69 69 SSE 12 19 30.31 1026 10 16 0.00 0.00
7:53 am 07:53 Cloudy 4 -15.6 -4 -20 69 69 S 14 22 30.27 1025 10 16 0.00 0.00
8:53 am 08:53 Cloudy 6 -14.4 -3 -19.4 66 66 SSE 15 24 30.23 1024 10 16 0.00 0.00
9:53 am 09:53 Cloudy 8 -13.3 -3 -19.4 60 60 S 16 26 30.19 1022 10 16 0.00 0.00
10:53 am 10:53 Cloudy 9 -12.8 -2 -18.9 61 61 S 18 30 30.15 1021 9 14 0.00 0.00
11:53 am 11:53 Cloudy 11 -11.7 -2 -18.9 55 55 S 15 24 30.11 1020 10 16 0.00 0.00
12:53 pm 12:53 Mostly Cloudy 14 -10 1 -17.2 56 56 S 16 26 30.06 1018 10 16 0.00 0.00
1:53 pm 13:53 Partly Cloudy 16 -8.9 3 -16.1 56 56 S 18 30 30.00 1016 10 16 0.00 0.00
2:53 pm 14:53 Mostly Sunny 18 -7.8 5 -15 57 57 S 17 28 29.97 1015 10 16 0.00 0.00
3:53 pm 15:53 Mostly Sunny 20 -6.7 8 -13.3 60 60 S 12 19 29.97 1015 10 16 0.00 0.00
4:53 pm 16:53 Mostly Cloudy 21 -6.1 9 -12.8 59 59 SSE 10 17 29.95 1014 10 16 0.00 0.00
5:53 pm 17:53 Cloudy 21 -6.1 11 -11.7 65 65 S 8 13 29.94 1014 10 16 0.00 0.00
6:53 pm 18:53 Cloudy 22 -5.6 12 -11.1 66 66 SSE 6 9 29.94 1014 10 16 0.00 0.00
7:53 pm 19:53 Mostly Cloudy 20 -6.7 12 -11.1 71 71 SSE 3 6 29.95 1014 10 16 0.00 0.00
8:53 pm 20:53 Partly Cloudy 19 -7.2 11 -11.7 71 71 Calm 29.97 1015 10 16 0.00 0.00
9:53 pm 21:53 Mostly Clear 17 -8.3 10 -12.2 74 74 Calm 29.98 1015 10 16 0.00 0.00
10:53 pm 22:53 Partly Cloudy 19 -7.2 13 -10.6 77 77 WSW 6 9 30.00 1016 9 14 0.00 0.00
11:53 pm 23:53 Partly Cloudy 21 -6.1 16 -8.9 81 81 WSW 5 7 30.01 1016 10 16 0.00 0.00

Powered by AerisWeather